Eagle Lake, FL

3:54 AM EDT on August 31, 2016 (GMT -0400)
Bartow Municipal

Weather History for KBOW - February, 2014

Change the Weather History Date:

Monday, February 17, 2014

  Actual Average Record
Temperature  
Mean Temperature 58 °F -  
Max Temperature 77 °F 76 °F 88 °F (1975)
Min Temperature 39 °F 53 °F 23 °F (1977)
Degree Days  
Heating Degree Days 7    
Growing Degree Days 8 (Base 50)    
Moisture  
Dew Point 38 °F    
Average Humidity 55    
Maximum Humidity 93    
Minimum Humidity 19    
Precipitation  
Precipitation 0.00 in - - ()
Sea Level Pressure  
Sea Level Pressure 30.20 in    
Wind  
Wind Speed 1 mph (NE)    
Max Wind Speed 7 mph    
Max Gust Speed -    
Visibility 10 miles    
Events      
Averages and records for this station are not official NWS values.
T = Trace of Precipitation, MM = Missing Value Source: NWS Daily Summary

Daily Weather History Graph

Daily Weather History Graph

Search for Another Location

Airport or City:

Trip Planner

Search our weather history database for the weather conditions in past years. The results will help you decide how hot, cold, wet, or windy it might be!

Date:

Astronomy

Feb. 17, 2014 Rise Set
Actual Time 7:02 AM EST 6:19 PM EST
Civil Twilight 6:39 AM EST 6:43 PM EST
Nautical Twilight 6:11 AM EST 7:11 PM EST
Astronomical Twilight 5:44 AM EST 7:38 PM EST
Moon 8:53 PM EST (2/17) 8:19 AM EST (2/17)
Length of Visible Light 12h 04m
Length of Day
11h 16m
Waning Gibbous, 93% of the Moon is Illuminated
Feb 17
Waning Gibbous
Feb 22
Last Quarter
Mar 1
New
Mar 8
First Quarter
Mar 16
Full

Hourly Weather History & Observations

Time (EST) Temp. Windchill Dew Point Humidity Pressure Visibility Wind Dir Wind Speed Gust Speed Precip Events Conditions
12:15 AM 46.4 °F - 39.2 °F 76% 30.22 in 10.0 mi Calm Calm - N/A   Clear
12:35 AM 44.6 °F - 39.2 °F 81% 30.21 in 10.0 mi Calm Calm - N/A   Clear
12:55 AM 46.4 °F - 39.2 °F 76% 30.21 in 10.0 mi Calm Calm - N/A   Clear
1:15 AM 48.2 °F - 39.2 °F 71% 30.20 in 10.0 mi Calm Calm - N/A   Clear
1:35 AM 46.4 °F - 39.2 °F 76% 30.20 in 10.0 mi Calm Calm - N/A   Clear
1:55 AM 42.8 °F - 39.2 °F 87% 30.20 in 10.0 mi Calm Calm - N/A   Clear
2:15 AM 42.8 °F - 39.2 °F 87% 30.19 in 10.0 mi Calm Calm - N/A   Clear
2:35 AM 42.8 °F - 39.2 °F 87% 30.20 in 10.0 mi Calm Calm - N/A   Clear
2:55 AM 39.2 °F - 37.4 °F 93% 30.20 in 10.0 mi Calm Calm - N/A   Clear
3:15 AM 41.0 °F - 39.2 °F 93% 30.20 in 10.0 mi Calm Calm - N/A   Clear
3:35 AM 41.0 °F - 39.2 °F 93% 30.20 in 10.0 mi Calm Calm - N/A   Clear
3:55 AM 41.0 °F - 39.2 °F 93% 30.20 in 10.0 mi Calm Calm - N/A   Clear
4:15 AM 42.8 °F - 39.2 °F 87% 30.20 in 10.0 mi Calm Calm - N/A   Clear
4:35 AM 41.0 °F - 39.2 °F 93% 30.20 in 10.0 mi Calm Calm - N/A   Clear
4:55 AM 41.0 °F - 37.4 °F 87% 30.20 in 10.0 mi Calm Calm - N/A   Clear
5:15 AM 41.0 °F - 39.2 °F 93% 30.21 in 10.0 mi Calm Calm - N/A   Clear
5:35 AM 42.8 °F - 37.4 °F 81% 30.21 in 10.0 mi Calm Calm - N/A   Clear
5:55 AM 41.0 °F - 37.4 °F 87% 30.22 in 10.0 mi Calm Calm - N/A   Clear
6:15 AM 39.2 °F - 37.4 °F 93% 30.22 in 10.0 mi Calm Calm - N/A   Clear
7:47 AM 41.0 °F 38.0 °F 39.2 °F 93% 30.24 in 10.0 mi NE 4.6 mph - N/A   Clear
8:49 AM 53.6 °F - 46.4 °F 77% 30.26 in 10.0 mi ENE 4.6 mph - N/A   Clear
9:49 AM 60.8 °F - 39.2 °F 45% 30.26 in 10.0 mi ENE 5.8 mph - N/A   Clear
10:47 AM 66.2 °F - 42.8 °F 43% 30.26 in 10.0 mi SE 4.6 mph - N/A   Clear
11:55 AM 71.6 °F - 35.6 °F 27% 30.23 in 10.0 mi SE 5.8 mph - N/A   Clear
12:47 PM 73.4 °F - 33.8 °F 23% 30.22 in 10.0 mi Calm Calm - N/A   Clear
1:47 PM 75.2 °F - 33.8 °F 22% 30.19 in 10.0 mi SE 4.6 mph - N/A   Clear
2:35 PM 75.2 °F - 33.8 °F 22% 30.17 in 10.0 mi South 3.5 mph - N/A   Clear
2:48 PM 75.2 °F - 33.8 °F 22% 30.17 in 10.0 mi Calm Calm - N/A   Clear
2:55 PM 77.0 °F - 33.8 °F 21% 30.17 in 10.0 mi NNE 3.5 mph - N/A   Clear
3:15 PM 77.0 °F - 33.8 °F 21% 30.17 in 10.0 mi NE 4.6 mph - N/A   Clear
3:35 PM 77.0 °F - 32.0 °F 19% 30.17 in 10.0 mi Calm Calm - N/A   Clear
3:47 PM 77.0 °F - 33.8 °F 21% 30.17 in 10.0 mi Calm Calm - N/A   Clear
3:55 PM 77.0 °F - 32.0 °F 19% 30.17 in 10.0 mi NNW 5.8 mph - N/A   Clear
4:15 PM 77.0 °F - 33.8 °F 21% 30.17 in 10.0 mi NNE 3.5 mph - N/A   Clear
4:35 PM 77.0 °F - 32.0 °F 19% 30.18 in 10.0 mi NW 5.8 mph - N/A   Clear
4:50 PM 77.0 °F - 32.0 °F 19% 30.18 in 10.0 mi West 4.6 mph - N/A   Clear
4:55 PM 77.0 °F - 32.0 °F 19% 30.18 in 10.0 mi West 3.5 mph - N/A   Clear
5:15 PM 75.2 °F - 32.0 °F 21% 30.18 in 10.0 mi Calm Calm - N/A   Clear
5:35 PM 75.2 °F - 32.0 °F 21% 30.18 in 10.0 mi SW 3.5 mph - N/A   Clear
5:55 PM 73.4 °F - 32.0 °F 22% 30.19 in 10.0 mi SW 3.5 mph - N/A   Clear
6:15 PM 71.6 °F - 37.4 °F 29% 30.19 in 10.0 mi Calm Calm - N/A   Clear
6:35 PM 66.2 °F - 39.2 °F 37% 30.19 in 10.0 mi Calm Calm - N/A   Clear
6:55 PM 62.6 °F - 42.8 °F 48% 30.19 in 10.0 mi Calm Calm - N/A   Clear
7:15 PM 60.8 °F - 41.0 °F 48% 30.19 in 10.0 mi Calm Calm - N/A   Clear
7:35 PM 59.0 °F - 42.8 °F 55% 30.20 in 10.0 mi Calm Calm - N/A   Clear
7:55 PM 59.0 °F - 42.8 °F 55% 30.20 in 10.0 mi Calm Calm - N/A   Clear
8:15 PM 60.8 °F - 39.2 °F 45% 30.21 in 10.0 mi Calm Calm - N/A   Clear
8:35 PM 60.8 °F - 39.2 °F 45% 30.21 in 10.0 mi Calm Calm - N/A   Clear
8:55 PM 59.0 °F - 42.8 °F 55% 30.22 in 10.0 mi Calm Calm - N/A   Clear
9:15 PM 57.2 °F - 42.8 °F 59% 30.22 in 10.0 mi Calm Calm - N/A   Clear
9:35 PM 53.6 °F - 42.8 °F 67% 30.22 in 10.0 mi Calm Calm - N/A   Clear
9:55 PM 62.6 °F - 39.2 °F 42% 30.23 in 10.0 mi NNW 6.9 mph - N/A   Clear
10:15 PM 60.8 °F - 39.2 °F 45% 30.23 in 10.0 mi Calm Calm - N/A   Clear
10:35 PM 59.0 °F - 41.0 °F 51% 30.22 in 10.0 mi Calm Calm - N/A   Clear
10:55 PM 59.0 °F - 42.8 °F 55% 30.23 in 10.0 mi Calm Calm - N/A   Clear
11:15 PM 53.6 °F - 42.8 °F 67% 30.23 in 10.0 mi Calm Calm - N/A   Clear
11:35 PM 55.4 °F - 42.8 °F 63% 30.23 in 10.0 mi Calm Calm - N/A   Clear
11:55 PM 51.8 °F - 44.6 °F 76% 30.23 in 10.0 mi Calm Calm - N/A   Clear